[[{"header":{"parameterUnit":"m.s-1","parameterCategory":1,"la1":30.2991,"la2":30.254,"lo1":-89.0895,"lo2":-89.0444,"dy":0.0017,"dx":0.0017,"nx":28,"ny":28,"refTime":"2023-11-11T03:00:00:Z","depth":0,"parameterNumber":2,"parameterNumberName":"U-component_of_WINDS"},"data":[0,0,0,0,0,0,0,0,0,0,0,0,0,0,0,0,0,0,0,0,0,0,0,0,0,0,0,0,0,0,0,0,0,0,0,0,0,0,0,0,0,0,0,0,0,0,0,0,0,0,0,0,0,0,0,0,0,0,-1.4247,-1.4248,0,-1.4301,-1.4301,-1.4302,-1.428,-1.4279,-1.4278,-1.4277,-1.4333,-1.4336,-1.4338,0,0,0,0,0,0,0,0,0,0,0,0,0,-1.4129,-1.4131,-1.4247,-1.4248,-1.4249,-1.43,-1.4301,-1.4302,-1.428,-1.4279,-1.4277,-1.4276,-1.4332,-1.4335,-1.4338,0,0,0,0,0,0,0,0,0,0,0,0,0,-1.4181,-1.4132,-1.4247,-1.4244,-1.4244,-1.43,-1.4301,-1.4302,-1.4281,-1.4279,-1.4277,-1.4275,-1.4331,-1.4335,-1.4339,-1.4401,0,0,-1.4351,-1.4353,0,0,0,0,0,0,0,0,-1.4178,-1.4185,-1.4244,-1.4245,-1.4245,-1.4282,-1.428,-1.4335,-1.4281,-1.4267,-1.4277,-1.4274,-1.4318,-1.4323,-1.4337,-1.4404,-1.4406,-1.4351,-1.4354,-1.4356,-1.4357,0,0,0,0,0,0,0,-1.4175,-1.4183,-1.4268,-1.4245,-1.4245,-1.4241,-1.4246,-1.429,-1.4302,-1.4268,-1.4267,-1.4273,-1.4317,-1.4333,-1.4338,-1.4407,-1.4351,-1.4355,-1.4357,-1.4359,-1.4529,-1.4531,0,0,0,0,0,0,-1.4171,-1.418,-1.4267,-1.427,-1.4206,-1.4244,-1.425,-1.4272,-1.4302,-1.4304,-1.4275,-1.4272,-1.4327,-1.4333,-1.434,-1.4415,-1.4356,-1.4359,-1.4362,-1.4527,-1.4529,-1.4531,0,0,0,0,0,0,-1.4168,-1.4178,-1.4265,-1.4225,-1.4235,-1.4248,-1.4273,-1.4274,-1.4289,-1.4307,-1.4309,-1.4288,-1.4326,-1.4334,-1.4386,-1.4417,-1.4361,-1.4365,-1.4524,-1.4527,-1.453,-1.4567,0,0,0,0,0,0,-1.4165,-1.4178,-1.4201,-1.4225,-1.4237,-1.431,-1.4275,-1.4276,-1.4296,-1.4293,-1.432,-1.4323,-1.4325,-1.438,-1.439,-1.4421,-1.4368,-1.4521,-1.4525,-1.4529,-1.4563,-1.4571,-1.4577,0,0,0,0,0,-1.4161,-1.421,-1.4203,-1.4213,-1.4267,-1.4312,-1.4319,-1.432,-1.4299,-1.4323,-1.4334,-1.4322,-1.4412,-1.4386,-1.4397,-1.443,-1.4519,-1.4524,-1.4529,-1.456,-1.4569,-1.4577,0,0,0,0,0,0,-1.419,-1.4213,-1.4205,-1.4264,-1.4286,-1.4308,-1.4338,-1.433,-1.4359,-1.4355,-1.4355,-1.4361,-1.4415,-1.4427,-1.4398,-1.4492,-1.4462,-1.447,-1.4482,-1.4491,-1.4498,-1.4495,-1.4371,0,0,0,0,0,-1.4203,-1.4237,-1.4255,-1.4305,-1.4316,-1.4326,-1.4345,-1.4344,-1.4367,-1.4376,-1.4391,-1.4414,-1.4448,-1.447,-1.4502,-1.4564,-1.457,-1.4592,-1.4599,-1.4605,-1.4612,-1.4646,-1.4656,-1.4547,-1.4547,-1.4547,0,0,-1.4231,-1.4248,-1.4269,-1.4311,-1.4328,-1.4364,-1.4334,-1.4372,-1.4399,-1.4382,-1.4432,-1.4444,-1.447,-1.4527,-1.4553,-1.4539,-1.4643,-1.4611,-1.4616,-1.4619,-1.4652,-1.4662,-1.4671,-1.455,-1.4549,-1.4549,0,0,-1.43,-1.4316,-1.4359,-1.4377,-1.4402,-1.4408,-1.4418,-1.4441,-1.4448,-1.4498,-1.4487,-1.4518,-1.4576,-1.4595,-1.4612,-1.4687,-1.4677,-1.4697,-1.4736,-1.4769,-1.4778,-1.4786,-1.4813,-1.4823,-1.4704,-1.4704,-1.4704,0,-1.4332,-1.4384,-1.4383,-1.4422,-1.4441,-1.4427,-1.4471,-1.4488,-1.4523,-1.4537,-1.452,-1.4592,-1.4609,-1.467,-1.4689,-1.4703,-1.4715,-1.4695,-1.4777,-1.4784,-1.4791,-1.4818,-1.4828,-1.4706,-1.4706,-1.4706,-1.4705,0,-1.4422,-1.4459,-1.449,-1.4524,-1.4546,-1.4588,-1.4593,-1.4616,-1.4613,-1.462,-1.4671,-1.469,-1.4726,-1.474,-1.4737,-1.4801,-1.4792,-1.4776,-1.4747,-1.4804,-1.4829,-1.4839,-1.4709,-1.4709,-1.4708,-1.4707,0,0,-1.4513,-1.4544,-1.4556,-1.4571,-1.4598,-1.4626,-1.4667,-1.4701,-1.4721,-1.4745,-1.478,-1.4828,-1.4813,-1.4833,-1.4832,-1.4861,-1.492,-1.4842,-1.4842,-1.4856,-1.4992,-1.5005,-1.5016,-1.4913,-1.4915,-1.4916,-1.499,0,-1.4584,-1.4656,-1.4655,-1.4721,-1.4755,-1.4742,-1.4777,-1.4798,-1.4806,-1.4836,-1.4844,-1.4879,-1.4856,-1.4868,-1.4896,-1.4907,-1.4947,-1.4901,-1.4946,-1.4948,-1.4941,-1.5029,-1.5043,-1.5111,-1.5,-1.5001,-1.5003,0,-1.4678,-1.4705,-1.4774,-1.4795,-1.481,-1.4842,-1.4872,-1.4901,-1.4924,-1.4928,-1.4949,-1.4943,-1.4985,-1.4954,-1.5012,-1.4981,-1.4999,-1.5007,-1.5009,-1.5015,-1.4979,-1.5037,-1.5133,-1.5144,-1.5018,-1.5016,-1.5015,0,-1.4738,-1.4791,-1.4839,-1.4852,-1.4879,-1.4901,-1.4914,-1.4934,-1.4955,-1.4982,-1.4995,-1.5026,-1.5044,-1.5069,-1.5072,-1.5049,-1.5131,-1.5099,-1.5136,-1.5136,-1.5155,-1.5154,-1.5256,-1.5165,-1.5164,-1.5164,-1.5164,0,-1.4819,-1.4862,-1.4867,-1.4897,-1.4944,-1.4943,-1.4991,-1.5001,-1.502,-1.5052,-1.5041,-1.5072,-1.5074,-1.5105,-1.5107,-1.5155,-1.5163,-1.5168,-1.5168,-1.5169,-1.5169,-1.5182,-1.5178,-1.5167,-1.5166,-1.5166,-1.5165,0,-1.4894,-1.4899,-1.4951,-1.4971,-1.4977,-1.5012,-1.5029,-1.5058,-1.5064,-1.5104,-1.5114,-1.5124,-1.516,-1.5165,-1.5208,-1.5209,-1.5267,-1.5262,-1.5259,-1.5259,-1.5295,-1.5292,-1.541,-1.5426,-1.5324,-1.5325,-1.5325,0,-1.4946,-1.4979,-1.5002,-1.5022,-1.5035,-1.5068,-1.5089,-1.5089,-1.511,-1.5138,-1.5164,-1.5198,-1.5226,-1.5285,-1.5296,-1.5329,-1.5325,-1.5364,-1.533,-1.533,-1.5326,-1.5325,-1.5328,-1.5371,-1.5372,-1.5373,-1.5374,0,-1.5038,-1.5038,-1.5067,-1.5098,-1.5122,-1.5146,-1.5169,-1.5186,-1.5189,-1.5214,-1.525,-1.5272,-1.5314,-1.5349,-1.5381,-1.5394,-1.5385,-1.5384,-1.5394,-1.5396,-1.5394,-1.5396,-1.5278,-1.5382,-1.5381,-1.538,-1.538,-1.538,-1.5104,-1.5132,-1.5153,-1.5186,-1.5202,-1.5223,-1.5251,-1.5261,-1.5291,-1.5325,-1.5323,-1.5363,-1.5385,-1.5427,-1.5441,-1.5473,-1.546,-1.5475,-1.5479,-1.5483,-1.5487,-1.5388,-1.5479,-1.5478,-1.5478,-1.5478,-1.5478,0,-1.5195,-1.5207,-1.5238,-1.5269,-1.5295,-1.5283,-1.5307,-1.533,-1.5365,-1.5386,-1.5413,-1.5455,-1.5488,-1.5502,-1.5535,-1.5557,-1.5554,-1.5566,-1.5565,-1.5568,-1.5496,-1.5484,-1.5568,-1.5568,-1.5568,-1.5568,-1.5568,-1.5568,-1.5246,-1.5294,-1.5296,-1.5352,-1.5364,-1.5403,-1.5418,-1.5437,-1.5454,-1.5501,-1.5528,-1.5536,-1.5554,-1.5588,-1.5618,-1.5622,-1.5635,-1.5649,-1.565,-1.5582,-1.5573,-1.5565,-1.5554,-1.5651,-1.5652,-1.572,-1.5721,-1.5721]},{"header":{"parameterUnit":"m.s-1","parameterCategory":1,"la1":30.2991,"la2":30.254,"lo1":-89.0895,"lo2":-89.0444,"dy":0.0017,"dx":0.0017,"nx":28,"ny":28,"refTime":"2023-11-11T03:00:00:Z","depth":0,"parameterNumber":3,"parameterNumberName":"V-component_of_WINDS"},"data":[0,0,0,0,0,0,0,0,0,0,0,0,0,0,0,0,0,0,0,0,0,0,0,0,0,0,0,0,0,0,0,0,0,0,0,0,0,0,0,0,0,0,0,0,0,0,0,0,0,0,0,0,0,0,0,0,0,0,-4.3939,-4.3939,0,-4.3943,-4.3943,-4.3943,-4.3884,-4.3882,-4.388,-4.3879,-4.3882,-4.3884,-4.3886,0,0,0,0,0,0,0,0,0,0,0,0,0,-4.3877,-4.3879,-4.3939,-4.3939,-4.3939,-4.3943,-4.3943,-4.3943,-4.3884,-4.3882,-4.388,-4.3878,-4.3882,-4.3884,-4.3886,0,0,0,0,0,0,0,0,0,0,0,0,0,-4.3895,-4.3879,-4.3939,-4.391,-4.3907,-4.3943,-4.3943,-4.3943,-4.3884,-4.3882,-4.3879,-4.3877,-4.3881,-4.3884,-4.3886,-4.395,0,0,-4.3893,-4.3894,0,0,0,0,0,0,0,0,-4.3894,-4.3897,-4.3914,-4.3912,-4.3909,-4.391,-4.3923,-4.3946,-4.3885,-4.3893,-4.3879,-4.3876,-4.3894,-4.3895,-4.3901,-4.395,-4.395,-4.3894,-4.3895,-4.3896,-4.3897,0,0,0,0,0,0,0,-4.3893,-4.3897,-4.394,-4.3914,-4.3911,-4.3896,-4.3896,-4.3927,-4.3907,-4.3892,-4.3888,-4.3889,-4.3892,-4.3899,-4.3901,-4.395,-4.3893,-4.3896,-4.3897,-4.3898,-4.4051,-4.4054,0,0,0,0,0,0,-4.3896,-4.3896,-4.394,-4.3941,-4.3895,-4.3899,-4.3899,-4.3912,-4.3906,-4.3903,-4.3891,-4.3886,-4.3896,-4.3898,-4.3901,-4.3974,-4.3896,-4.3898,-4.39,-4.4048,-4.4052,-4.4054,0,0,0,0,0,0,-4.3895,-4.39,-4.394,-4.3917,-4.3921,-4.3903,-4.3918,-4.3914,-4.3921,-4.3906,-4.3902,-4.3902,-4.3894,-4.3897,-4.3938,-4.3974,-4.3899,-4.3902,-4.4045,-4.4049,-4.4053,-4.4123,0,0,0,0,0,0,-4.3893,-4.39,-4.3925,-4.3918,-4.3923,-4.3978,-4.3921,-4.3916,-4.3925,-4.3919,-4.3915,-4.3912,-4.3892,-4.3935,-4.394,-4.3976,-4.3903,-4.4042,-4.4047,-4.4052,-4.4117,-4.4129,-4.4139,0,0,0,0,0,-4.3891,-4.3944,-4.3926,-4.3932,-4.3953,-4.398,-4.3983,-4.3959,-4.3928,-4.3952,-4.3943,-4.3912,-4.3969,-4.3939,-4.3945,-4.3982,-4.404,-4.4046,-4.4051,-4.4113,-4.4127,-4.4138,0,0,0,0,0,0,-4.3954,-4.3943,-4.3923,-4.3975,-4.3979,-4.397,-4.4,-4.3975,-4.3987,-4.3981,-4.3951,-4.3951,-4.3996,-4.3993,-4.396,-4.4043,-4.3999,-4.4006,-4.4043,-4.4057,-4.4067,-4.4067,-4.3905,0,0,0,0,0,-4.3975,-4.3998,-4.3987,-4.4034,-4.4037,-4.4018,-4.4029,-4.4011,-4.4014,-4.4015,-4.4008,-4.4012,-4.4031,-4.4043,-4.406,-4.4117,-4.4115,-4.4145,-4.4156,-4.4164,-4.4171,-4.4201,-4.4214,-4.4074,-4.4074,-4.4074,0,0,-4.4016,-4.4013,-4.4029,-4.4047,-4.4047,-4.4072,-4.402,-4.4048,-4.4066,-4.4019,-4.4057,-4.4053,-4.4055,-4.4104,-4.4125,-4.4103,-4.4209,-4.4172,-4.4179,-4.4181,-4.4208,-4.4221,-4.4233,-4.4078,-4.4077,-4.4076,0,0,-4.4105,-4.4105,-4.4144,-4.4146,-4.4149,-4.4136,-4.4145,-4.414,-4.4135,-4.4173,-4.4138,-4.4159,-4.4192,-4.4195,-4.4201,-4.4291,-4.4263,-4.4297,-4.4352,-4.4381,-4.4392,-4.4402,-4.4434,-4.4445,-4.4303,-4.4304,-4.4304,0,-4.4156,-4.4192,-4.4167,-4.4198,-4.4207,-4.4166,-4.4205,-4.4208,-4.4216,-4.4222,-4.4197,-4.4237,-4.4236,-4.4285,-4.4307,-4.4313,-4.4323,-4.4297,-4.4393,-4.4402,-4.4411,-4.4441,-4.4453,-4.4308,-4.4307,-4.4307,-4.4306,0,-4.4255,-4.4281,-4.4312,-4.4321,-4.4333,-4.4368,-4.4348,-4.4363,-4.4344,-4.4334,-4.4372,-4.4369,-4.4384,-4.4395,-4.4376,-4.4441,-4.4427,-4.4398,-4.4353,-4.4429,-4.4456,-4.4468,-4.4314,-4.4312,-4.4311,-4.431,0,0,-4.4383,-4.4378,-4.439,-4.4393,-4.4393,-4.4412,-4.4445,-4.446,-4.4473,-4.448,-4.4507,-4.4536,-4.4509,-4.4515,-4.4497,-4.4523,-4.4594,-4.449,-4.4489,-4.4509,-4.4665,-4.4687,-4.47,-4.4575,-4.4578,-4.4579,-4.4665,0,-4.4469,-4.4525,-4.4504,-4.4562,-4.4585,-4.4547,-4.4575,-4.4578,-4.457,-4.4588,-4.4578,-4.4599,-4.4562,-4.4566,-4.4589,-4.458,-4.4624,-4.4574,-4.4599,-4.4601,-4.46,-4.4715,-4.4738,-4.4818,-4.4675,-4.4677,-4.4678,0,-4.4576,-4.4588,-4.4648,-4.4644,-4.4653,-4.4679,-4.4691,-4.4709,-4.4711,-4.4703,-4.4711,-4.4687,-4.4719,-4.4674,-4.4717,-4.4683,-4.4692,-4.469,-4.4692,-4.4693,-4.4644,-4.4718,-4.4843,-4.4855,-4.4695,-4.4694,-4.4693,0,-4.4663,-4.4694,-4.4734,-4.4738,-4.4734,-4.4753,-4.4752,-4.4752,-4.4763,-4.4773,-4.4779,-4.4793,-4.4801,-4.4812,-4.4792,-4.4762,-4.4838,-4.4792,-4.4832,-4.4832,-4.4849,-4.4848,-4.4977,-4.4856,-4.4856,-4.4856,-4.4856,0,-4.4761,-4.4799,-4.4773,-4.4797,-4.4839,-4.4814,-4.4856,-4.485,-4.4851,-4.4873,-4.4841,-4.4863,-4.4835,-4.4855,-4.4839,-4.4877,-4.4881,-4.4875,-4.487,-4.4878,-4.4878,-4.4883,-4.4876,-4.4859,-4.4858,-4.4858,-4.4857,0,-4.4865,-4.4848,-4.4889,-4.4883,-4.4882,-4.4913,-4.4907,-4.4929,-4.4918,-4.4947,-4.4952,-4.4936,-4.4957,-4.4938,-4.4958,-4.4948,-4.4998,-4.4985,-4.4997,-4.4994,-4.5034,-4.5031,-4.517,-4.5187,-4.5056,-4.5057,-4.5058,0,-4.4928,-4.4956,-4.4953,-4.4966,-4.4967,-4.4989,-4.4999,-4.4975,-4.4987,-4.4992,-4.5014,-4.5032,-4.5045,-4.5081,-4.507,-4.5085,-4.5072,-4.512,-4.5074,-4.5081,-4.5073,-4.5071,-4.5073,-4.5129,-4.5131,-4.5132,-4.5133,0,-4.5042,-4.5032,-4.5049,-4.5063,-4.5076,-4.5086,-4.5093,-4.5106,-4.5081,-4.5097,-4.5118,-4.5128,-4.5149,-4.5167,-4.5179,-4.5177,-4.5152,-4.5148,-4.5158,-4.5165,-4.5171,-4.5168,-4.5022,-4.5145,-4.5144,-4.5143,-4.5142,-4.5142,-4.5126,-4.515,-4.5151,-4.5171,-4.5174,-4.5181,-4.5202,-4.5194,-4.5211,-4.5226,-4.5211,-4.5237,-4.5238,-4.5251,-4.5253,-4.5273,-4.5253,-4.5267,-4.5271,-4.5275,-4.528,-4.5168,-4.5275,-4.5275,-4.5274,-4.5274,-4.5274,0,-4.5238,-4.5237,-4.5255,-4.5267,-4.5282,-4.5257,-4.5263,-4.5278,-4.5301,-4.5305,-4.5318,-4.5343,-4.536,-4.5352,-4.5367,-4.5384,-4.5373,-4.5389,-4.5387,-4.5387,-4.5298,-4.5287,-4.5398,-4.5398,-4.5398,-4.5398,-4.5398,-4.5398,-4.5298,-4.5337,-4.5327,-4.5367,-4.5365,-4.5391,-4.5396,-4.5403,-4.5406,-4.5435,-4.5449,-4.5444,-4.5442,-4.5457,-4.5472,-4.5469,-4.5476,-4.5497,-4.5489,-4.5406,-4.5393,-4.5382,-4.5372,-4.5498,-4.5499,-4.5577,-4.5578,-4.5578]}]]